Weather History for KPNS - April, 2014

Change the Weather History Date:

Sunday, April 6, 2014

  Actual Average Record
Temperature  
Mean Temperature 66 °F 64 °F  
Max Temperature 72 °F 74 °F 84 °F (1956)
Min Temperature 59 °F 55 °F 37 °F (1891)
Degree Days  
Heating Degree Days 0 3  
Month to date heating degree days 5 18  
Since 1 July heating degree days 1547 1502  
Cooling Degree Days 1 2  
Month to date cooling degree days 23 12  
Year to date cooling degree days 44 59  
Growing Degree Days 15 (Base 50)    
Moisture  
Dew Point 64 °F    
Average Humidity 88    
Maximum Humidity 97    
Minimum Humidity 78    
Precipitation  
Precipitation 0.08 in 0.15 in 6.87 in (2005)
Month to date precipitation 0.80 0.94  
Year to date precipitation 21.91 16.44  
Snow  
Snow 0.00 in 0.00 in - ()
Month to date snowfall 0.0 0.0  
Since 1 July snowfall 1.0 0.0  
Snow Depth 0.00 in    
Sea Level Pressure  
Sea Level Pressure 29.90 in    
Wind  
Wind Speed 11 mph (ESE)    
Max Wind Speed 24 mph    
Max Gust Speed 35 mph    
Visibility 6 miles    
Events Fog , Rain , Thunderstorm    
T = Trace of Precipitation, MM = Missing Value Source: NWS Daily Summary

Daily Weather History Graph

Daily Weather History Graph

Search for Another Location

Airport or City:

Trip Planner

Search our weather history database for the weather conditions in past years. The results will help you decide how hot, cold, wet, or windy it might be!

Date:

Astronomy

Apr. 06, 2014 Rise Set
Actual Time 6:31 AM CDT 7:10 PM CDT
Civil Twilight 6:07 AM CDT 7:35 PM CDT
Nautical Twilight 5:38 AM CDT 8:03 PM CDT
Astronomical Twilight 5:09 AM CDT 8:33 PM CDT
Moon 11:45 AM CDT (4/6) 12:53 AM CDT (4/6)
Length of Visible Light 13h 27m
Length of Day
12h 38m
Waxing Crescent, 44% of the Moon is Illuminated
Apr 6
Waxing Crescent
Apr 7
First Quarter
Apr 15
Full
Apr 22
Last Quarter
Apr 29
New

Hourly Weather History & Observations

Time (CDT) Temp. Dew Point Humidity Pressure Visibility Wind Dir Wind Speed Gust Speed Precip Events Conditions
12:09 AM 63.0 °F 60.1 °F 90% 29.99 in 10.0 mi ENE 4.6 mph - N/A   Scattered Clouds
12:16 AM 63.0 °F 60.1 °F 90% 29.98 in 10.0 mi ENE 3.5 mph - N/A   Mostly Cloudy
12:53 AM 63.0 °F 60.1 °F 90% 29.99 in 10.0 mi Variable 3.5 mph - N/A   Overcast
1:16 AM 64.0 °F 61.0 °F 90% 29.97 in 10.0 mi Calm Calm - N/A   Overcast
1:46 AM 64.0 °F 61.0 °F 90% 29.96 in 10.0 mi East 4.6 mph - N/A   Overcast
1:53 AM 64.0 °F 61.0 °F 90% 29.96 in 10.0 mi East 4.6 mph - N/A   Overcast
2:10 AM 64.0 °F 61.0 °F 90% 29.96 in 9.0 mi Calm Calm - N/A   Overcast
2:20 AM 64.0 °F 61.0 °F 90% 29.95 in 9.0 mi East 3.5 mph - N/A   Overcast
2:31 AM 64.0 °F 62.1 °F 93% 29.94 in 8.0 mi ESE 4.6 mph - N/A   Overcast
2:53 AM 64.9 °F 62.1 °F 90% 29.93 in 7.0 mi SE 10.4 mph - N/A   Overcast
3:53 AM 66.9 °F 64.9 °F 93% 29.92 in 8.0 mi ESE 6.9 mph - N/A   Overcast
4:44 AM 68.0 °F 64.9 °F 90% 29.88 in 10.0 mi ESE 10.4 mph - N/A   Overcast
4:53 AM 68.0 °F 64.9 °F 90% 29.90 in 9.0 mi SE 9.2 mph - N/A   Overcast
5:09 AM 68.0 °F 64.9 °F 90% 29.88 in 2.5 mi SE 11.5 mph - N/A   Overcast
5:30 AM 68.0 °F 64.9 °F 90% 29.87 in 4.0 mi SE 10.4 mph - N/A   Overcast
5:46 AM 68.0 °F 66.0 °F 93% 29.88 in 1.8 mi SSE 9.2 mph - N/A   Overcast
5:53 AM 68.0 °F 66.0 °F 93% 29.90 in 1.0 mi SSE 9.2 mph - N/A   Overcast
6:06 AM 68.0 °F 66.0 °F 93% 29.91 in 0.8 mi SE 6.9 mph - N/A   Overcast
6:53 AM 68.0 °F 66.0 °F 93% 29.94 in 0.5 mi ESE 5.8 mph - N/A Fog Fog
7:02 AM 68.0 °F 66.0 °F 93% 29.94 in 0.2 mi ESE 6.9 mph - N/A Fog Fog
7:25 AM 68.0 °F 66.9 °F 96% 29.94 in 0.2 mi SE 6.9 mph - N/A Fog Fog
7:53 AM 69.1 °F 66.9 °F 93% 29.94 in 0.2 mi SSE 9.2 mph - N/A Fog Fog
8:53 AM 70.0 °F 68.0 °F 93% 29.95 in 0.2 mi South 8.1 mph - N/A Fog Fog
9:53 AM 62.1 °F 59.0 °F 90% 29.96 in 0.5 mi North 15.0 mph 18.4 mph 0.00 in Fog , Rain Light Rain
9:58 AM 60.1 °F 57.9 °F 93% 29.95 in 2.0 mi North 12.7 mph - 0.00 in Rain Light Rain
10:07 AM 60.1 °F 57.9 °F 93% 29.96 in 3.0 mi North 13.8 mph - 0.00 in Rain Light Rain
10:20 AM 59.0 °F 57.0 °F 93% 29.96 in 2.5 mi North 9.2 mph - 0.00 in   Overcast
10:31 AM 59.0 °F 57.0 °F 93% 29.96 in 3.0 mi North 12.7 mph - 0.00 in   Overcast
10:53 AM 60.1 °F 57.0 °F 90% 29.97 in 4.0 mi NNE 12.7 mph - 0.00 in   Overcast
11:53 AM 63.0 °F 59.0 °F 87% 29.96 in 10.0 mi NNE 9.2 mph - 0.00 in   Overcast
12:50 PM 66.2 °F 60.8 °F 83% 29.95 in 10.0 mi Variable 6.9 mph - N/A   Overcast
12:53 PM 66.0 °F 60.1 °F 81% 29.95 in 10.0 mi NNE 8.1 mph - N/A   Overcast
1:53 PM 69.1 °F 62.1 °F 78% 29.92 in 10.0 mi ENE 4.6 mph - N/A   Overcast
2:29 PM 69.1 °F 62.1 °F 78% 29.89 in 10.0 mi ENE 6.9 mph - N/A   Overcast
2:53 PM 70.0 °F 63.0 °F 78% 29.89 in 10.0 mi ENE 5.8 mph - N/A   Overcast
3:53 PM 70.0 °F 64.9 °F 84% 29.85 in 10.0 mi East 5.8 mph - 0.01 in   Overcast
4:53 PM 70.0 °F 68.0 °F 93% 29.82 in 5.0 mi East 6.9 mph - 0.02 in   Overcast
5:06 PM 71.1 °F 68.0 °F 90% 29.81 in 2.5 mi East 10.4 mph 16.1 mph 0.02 in Rain Heavy Rain
5:20 PM 71.1 °F 68.0 °F 90% 29.81 in 4.0 mi SE 10.4 mph - 0.04 in   Overcast
5:29 PM 71.1 °F 69.1 °F 93% 29.81 in 4.0 mi SE 13.8 mph - 0.04 in Thunderstorm Overcast
5:44 PM 71.1 °F 68.0 °F 90% 29.80 in 4.0 mi SE 12.7 mph - 0.05 in Rain Light Rain
5:53 PM 71.1 °F 68.0 °F 90% 29.81 in 4.0 mi SSE 15.0 mph 21.9 mph 0.05 in   Overcast
6:53 PM 71.1 °F 68.0 °F 90% 29.81 in 4.0 mi SSE 16.1 mph - N/A   Overcast
7:17 PM 71.1 °F 68.0 °F 90% 29.80 in 5.0 mi SSE 16.1 mph - N/A   Overcast
7:53 PM 71.1 °F 68.0 °F 90% 29.81 in 7.0 mi SSE 16.1 mph - N/A   Overcast
8:30 PM 71.1 °F 68.0 °F 90% 29.80 in 6.0 mi SSE 16.1 mph - N/A   Overcast
8:53 PM 71.1 °F 68.0 °F 90% 29.81 in 6.0 mi SSE 17.3 mph 25.3 mph N/A   Overcast
9:53 PM 71.1 °F 69.1 °F 93% 29.83 in 6.0 mi SSE 18.4 mph 24.2 mph N/A   Overcast
10:53 PM 71.1 °F 69.1 °F 93% 29.83 in 5.0 mi SSE 18.4 mph 26.5 mph N/A   Overcast
11:53 PM 71.1 °F 69.1 °F 93% 29.80 in 6.0 mi SSE 17.3 mph - N/A   Overcast